Wind_Speed
15 14 15 13 12 10 13 13 13 12 11 12 12 13 14 14 13 14 14 12 11 12 9 7 8 7 6 6 9 10 12 16
17 17 17 15 10 12 12 11 12 13 12 12 12 12 12 13 14 14 14 13 12 12 9 9 9 7 5 6 7 9 13 15
21 19 20 18 9 11 13 13 13 13 13 12 12 12 13 14 14 14 15 14 13 13 11 10 10 7 6 6 8 10 14 16
22 18 21 19 11 12 12 13 13 13 14 14 13 13 13 13 14 11 14 14 14 14 13 11 11 8 8 7 8 11 12 15
22 17 19 19 11 14 15 14 14 14 15 15 13 11 11 11 13 12 13 14 15 15 13 12 11 10 9 9 9 11 14 14
25 17 16 16 15 15 16 16 16 16 16 15 15 14 12 12 12 12 12 14 14 14 13 14 12 12 11 11 11 12 14 18
28 18 17 16 17 16 15 15 16 17 17 17 16 15 14 14 14 14 13 13 14 13 14 14 13 14 12 12 11 13 15 17
30 25 20 20 18 14 14 12 13 16 18 19 18 17 17 17 16 17 15 15 14 13 15 15 15 15 15 14 13 13 16 17
33 22 23 20 17 15 13 12 12 13 15 19 20 20 20 20 19 17 17 15 13 15 16 17 17 17 17 17 16 17 18 19
30 22 28 23 19 14 10 11 13 14 14 16 20 21 22 22 20 17 16 16 17 16 16 19 19 20 21 21 22 22 19 20
28 28 31 27 20 16 13 10 12 15 14 14 17 19 20 21 22 19 15 18 16 17 16 19 22 24 24 25 25 22 21 20
34 32 32 30 24 20 14 10 11 14 16 15 17 18 18 20 20 20 16 17 18 19 17 17 22 25 27 28 26 25 23 23
33 31 34 33 28 24 17 13 9 11 13 14 15 17 17 19 19 19 19 19 19 21 22 21 23 26 28 29 28 28 26 27
30 33 36 34 31 26 18 13 11 12 12 13 15 16 16 15 16 19 19 20 23 25 27 25 24 27 27 28 29 31 28 30
27 35 37 34 33 28 21 16 15 20 17 14 14 14 13 13 14 17 18 20 21 24 26 27 25 27 28 28 30 32 30 30
30 35 37 34 34 28 23 21 22 24 25 21 17 18 17 16 16 16 18 19 19 22 25 26 24 26 27 27 30 31 30 31
33 36 39 34 29 26 24 23 22 28 28 27 24 24 24 23 23 22 21 22 24 24 25 26 27 27 27 25 28 29 29 32
35 31 29 28 30 27 25 23 23 24 25 29 29 28 27 28 28 28 28 29 30 30 31 29 30 30 30 30 30 28 29 32
37 38 38 34 31 28 29 24 20 21 22 24 28 33 32 32 32 33 33 33 34 34 34 31 33 33 32 34 34 30 31 35
Wind_Direction
245 237 243 261 291 228 228 222 224 230 229 229 224 221 220 221 221 222 229 232 235 247 257 249 268 284 303 331 345 353 358 1
236 231 239 245 272 226 227 224 221 229 232 235 238 232 235 233 232 231 221 229 233 246 260 252 265 273 285 312 336 352 357 354
231 237 237 239 258 222 220 213 214 225 228 232 234 231 232 232 233 237 223 228 229 239 251 251 260 262 272 300 326 339 345 347
237 244 237 240 251 227 219 212 214 223 226 231 236 234 233 237 239 243 230 231 229 234 244 247 256 254 265 287 314 329 335 345
231 240 239 244 250 221 216 214 217 222 226 231 237 237 242 238 243 248 234 234 232 237 239 248 250 256 261 280 302 316 326 334
241 241 242 239 243 232 227 225 223 225 229 230 232 237 241 247 254 258 249 242 238 242 245 247 248 253 262 274 291 304 312 321
229 228 226 229 235 228 226 232 231 230 232 233 235 238 244 256 266 270 261 251 247 244 247 250 251 255 263 276 290 308 313 318
227 220 226 222 221 217 223 231 233 233 235 240 241 239 248 258 269 272 261 258 256 254 250 250 253 257 268 274 288 296 303 309
225 229 222 215 211 213 224 235 235 232 234 242 248 247 250 257 269 276 268 255 270 267 261 256 258 262 270 272 279 286 297 308
225 240 212 206 213 215 215 228 236 240 236 234 243 248 248 255 264 276 263 263 273 267 268 265 263 265 268 270 274 285 289 299
227 239 207 206 213 204 206 229 243 249 248 238 238 247 249 251 253 269 263 265 266 273 277 269 268 269 270 271 274 277 282 292
231 222 209 209 212 207 208 218 248 254 261 259 252 254 256 254 256 263 264 260 262 273 286 280 277 273 271 272 273 275 276 282
221 210 212 212 213 210 208 216 237 260 258 259 255 257 258 258 260 263 260 260 264 269 283 288 284 284 276 275 273 275 273 279
210 207 213 219 214 211 214 223 235 244 251 261 263 263 263 259 259 263 265 269 266 272 276 287 287 289 289 283 277 277 275 279
206 203 213 222 214 215 225 230 245 241 248 255 266 261 262 263 258 259 266 272 276 274 281 287 289 286 290 289 283 282 279 279
199 205 217 224 213 218 228 240 248 239 246 253 256 252 255 260 263 265 266 268 276 276 277 283 289 285 287 289 285 284 280 277
209 211 219 218 211 221 231 251 248 245 244 247 250 250 253 258 263 266 268 272 274 277 275 279 283 284 284 286 282 283 277 274
203 206 212 214 219 227 236 244 254 249 247 248 248 252 253 258 263 267 270 272 273 275 276 276 280 285 285 285 283 280 274 274
195 198 206 218 228 237 234 242 254 250 251 252 254 256 256 257 261 265 267 268 270 274 276 277 278 278 281 281 281 281 278 271
Height
3143 3145 3146 3147 3147 3148 3149 3151 3154 3156 3158 3160 3161 3162 3163 3164 3166 3167 3169 3171 3173 3173 3173 3175 3176 3176 3177 3177 3176 3174 3173 3171
3139 3142 3143 3144 3144 3146 3147 3149 3152 3154 3156 3158 3159 3161 3161 3163 3164 3165 3167 3168 3170 3171 3172 3173 3174 3175 3176 3176 3175 3174 3173 3171
3135 3138 3140 3141 3142 3143 3145 3146 3149 3152 3154 3155 3157 3159 3159 3160 3162 3163 3165 3166 3167 3169 3170 3172 3172 3174 3174 3174 3174 3173 3172 3170
3131 3134 3136 3137 3139 3140 3142 3144 3147 3149 3151 3153 3154 3156 3157 3158 3160 3161 3163 3164 3165 3166 3167 3169 3170 3172 3172 3173 3172 3172 3171 3169
3126 3129 3131 3133 3135 3137 3139 3141 3144 3146 3148 3150 3152 3154 3155 3156 3157 3158 3160 3161 3162 3163 3165 3166 3168 3169 3170 3170 3170 3169 3167 3167
3119 3123 3127 3130 3131 3134 3136 3138 3140 3143 3145 3148 3150 3151 3152 3153 3154 3155 3157 3158 3159 3161 3162 3164 3165 3166 3167 3168 3168 3167 3166 3164
3116 3119 3122 3125 3126 3129 3132 3134 3137 3139 3142 3144 3146 3148 3150 3151 3152 3152 3153 3155 3156 3157 3160 3161 3162 3163 3164 3165 3165 3165 3164 3162
3110 3112 3116 3120 3122 3125 3128 3130 3133 3136 3138 3140 3143 3145 3146 3148 3149 3149 3151 3151 3153 3154 3156 3158 3159 3160 3161 3162 3162 3162 3161 3160
3104 3107 3111 3115 3119 3122 3124 3126 3129 3132 3134 3136 3138 3141 3143 3144 3145 3146 3147 3148 3150 3152 3153 3154 3156 3157 3157 3158 3158 3157 3157 3157
3098 3102 3106 3110 3114 3117 3120 3122 3124 3127 3130 3132 3134 3136 3139 3140 3141 3142 3143 3144 3146 3148 3149 3150 3151 3152 3153 3153 3153 3154 3154 3152
3092 3096 3100 3105 3109 3113 3116 3118 3120 3122 3125 3128 3129 3131 3134 3136 3138 3138 3139 3140 3141 3142 3145 3145 3146 3147 3148 3148 3148 3149 3149 3148
3088 3091 3095 3100 3104 3108 3112 3114 3116 3118 3120 3122 3125 3127 3129 3131 3133 3134 3136 3136 3137 3138 3140 3141 3141 3142 3142 3142 3143 3143 3143 3143
3082 3086 3090 3094 3099 3103 3107 3110 3112 3114 3116 3117 3120 3122 3124 3126 3128 3130 3131 3132 3133 3134 3134 3136 3136 3136 3136 3137 3137 3137 3138 3137
3075 3081 3085 3089 3093 3098 3102 3105 3108 3110 3112 3113 3115 3117 3119 3121 3123 3124 3126 3127 3128 3129 3129 3129 3131 3130 3130 3130 3131 3130 3131 3131
3071 3076 3079 3084 3089 3093 3097 3101 3103 3105 3108 3110 3111 3113 3114 3116 3118 3119 3120 3121 3122 3123 3124 3124 3124 3125 3124 3124 3124 3123 3125 3125
3066 3070 3073 3078 3083 3088 3092 3095 3097 3100 3102 3104 3107 3108 3110 3111 3113 3114 3115 3116 3117 3118 3118 3118 3118 3119 3118 3118 3118 3118 3118 3118
3060 3064 3069 3072 3078 3083 3086 3088 3091 3093 3096 3098 3100 3102 3104 3105 3107 3108 3109 3110 3110 3111 3111 3112 3111 3112 3111 3111 3111 3110 3111 3111
3053 3058 3062 3066 3071 3076 3080 3083 3084 3087 3089 3091 3093 3095 3097 3099 3100 3101 3103 3103 3103 3104 3104 3104 3104 3105 3105 3104 3103 3103 3103 3103
3046 3050 3055 3060 3065 3069 3073 3076 3078 3080 3082 3084 3086 3087 3089 3091 3093 3093 3094 3095 3095 3095 3096 3096 3096 3096 3097 3096 3095 3095 3094 3094